Regional Weather Roundup
Issued by NWS

Home | Current Version | Previous Version | Graphics & Text | Print | Product List | Glossary On
Versions: 1 2 3 4 5 6 7 8 9 10 11 12 13 14 15 16 17 18 19 20 21 22 23 24 25 26 27 28 29 30 31 32 33 34 35 36 37 38 39 40 41 42 43 44 45 46 47 48 49 50
000
ASUS45 KSLC 271510
RWRUT

UTAH REGIONAL WEATHER ROUNDUP
NATIONAL WEATHER SERVICE SALT LAKE CITY UT
800 AM MST THU NOV 27 2014

UTZ001>011-023>025-271600-

NORTHERN UTAH

CITY           SKY/WX    TMP DP  RH WIND       PRES   REMARKS
BRIGHAM CITY   CLOUDY    41  28  60 NW3       30.30S
HILL AFB       CLOUDY    42  25  50 SE13      30.29S
LOGAN          CLEAR     39  28  64 NE3       30.27S
OGDEN          MOCLDY    40  27  59 S8        30.29R WCI  34
PROVO AIRPORT  MOCLDY    36  28  75 SE6       30.36F WCI  31
SALT LAKE CITY CLOUDY    46  25  43 SE14      30.28S
VERNAL         MOCLDY    28  22  78 W3        30.41R
WENDOVER       CLOUDY    36  27  69 W3        30.29R
HEBER CITY     MOCLDY    25  23  93 CALM      30.39S
WEST JORDAN    CLEAR     45  30  57 S15       30.30S

$$

UTZ012>022-026-027-271600-

SOUTHERN/CENTRAL UTAH

CITY           SKY/WX    TMP DP  RH WIND       PRES   REMARKS
BLANDING       PTCLDY    31  20  63 NE5       30.55R WCI  27
BRYCE CANYON   MOCLDY    25  11  55 W6        30.50R WCI  18
CEDAR CITY     MOCLDY    28  19  69 S6        30.39R WCI  22
DELTA          CLOUDY    30  25  83 SE3       30.36S
MILFORD        NOT AVBL
MOAB/CYNLANDS  CLEAR     31  21  66 CALM      30.45R
PRICE          PTCLDY    31  22  69 N5        30.44R WCI  26
ST GEORGE      PTSUNNY   34  16  47 CALM      30.42R
KANAB          PTCLDY    27  14  59 NE6       30.47S WCI  20

$$

REGIONAL REPORTS     COLORADO/ARIZONA

CITY           SKY/WX    TMP DP  RH WIND       PRES   REMARKS
CRAIG, CO      MOCLDY    25  21  85 W3        30.40S
GRAND JUNCTION PTCLDY    26  23  88 CALM      30.48R
RIFLE          PTCLDY    22  19  89 SW5       30.51S WCI  16
MONTROSE       PTCLDY    25  20  81 S7        30.52R WCI  17
CORTEZ         CLEAR     21  16  81 NE3       30.49S
PAGE, AZ       MOCLDY    37  16  42 CALM      30.45R
GRAND CANYON   PTCLDY    19   8  62 NE6       30.47S WCI  11
KINGMAN        PTCLDY    44  17  33 CALM      30.32R
FLAGSTAFF      PTCLDY    26  15  63 CALM      30.49R

$$

REGIONAL REPORTS    NEVADA/IDAHO/WYOMING

CITY           SKY/WX    TMP DP  RH WIND       PRES   REMARKS
LAS VEGAS, NV  PTCLDY    47  20  34 SW7       30.27S
ELY            MOCLDY    30  15  53 SE6       30.40R WCI  24
ELKO           CLOUDY    31  28  89 CALM      30.31R
POCATELLO, ID  CLEAR     52  26  36 S17G26    30.20R
BURLEY         CLOUDY    47  29  49 SW9       30.21R
EVANSTON, WY   PTCLDY    35  20  54 SW16      30.33R WCI  25
ROCK SPRINGS   CLOUDY    34  19  54 W7        30.31S WCI  28

$$



USA.gov is the U.S. government's official web portal to all federal, state and local government web resources and services.